Portsmouth, NH

3:00 AM EDT on March 24, 2017 (GMT -0400)
Pease International Tradeport

Weather History for KPSM - April, 2014

Change the Weather History Date:

Wednesday, April 30, 2014

  Actual Average Record
Temperature  
Mean Temperature 41 °F -  
Max Temperature 44 °F 60 °F 82 °F (1984)
Min Temperature 39 °F 40 °F 26 °F (1975)
Degree Days  
Heating Degree Days 24    
Moisture  
Dew Point 38 °F    
Average Humidity 89    
Maximum Humidity 100    
Minimum Humidity 73    
Precipitation  
Precipitation 0.18 in - - ()
Sea Level Pressure  
Sea Level Pressure 30.45 in    
Wind  
Wind Speed 7 mph (East)    
Max Wind Speed 16 mph    
Max Gust Speed -    
Visibility 8 miles    
Events Rain    
Averages and records for this station are not official NWS values.
T = Trace of Precipitation, MM = Missing Value Source: NWS Daily Summary

Daily Weather History Graph

Daily Weather History Graph

Search for Another Location

Airport or City:

Trip Planner

Search our weather history database for the weather conditions in past years. The results will help you decide how hot, cold, wet, or windy it might be!

Date:

Astronomy

Apr. 30, 2014 Rise Set
Actual Time 5:38 AM EDT 7:43 PM EDT
Civil Twilight 5:07 AM EDT 8:14 PM EDT
Nautical Twilight 4:29 AM EDT 8:52 PM EDT
Astronomical Twilight 3:47 AM EDT 9:34 PM EDT
Moon 6:36 AM EDT (4/30) 9:20 PM EDT (4/30)
Length of Visible Light 15h 06m
Length of Day
14h 04m
New Moon, 2% of the Moon is Illuminated
Apr 30
New Moon
May 6
First Quarter
May 14
Full
May 21
Last Quarter
May 28
New

Hourly Weather History & Observations

Time (EDT) Temp. Windchill Dew Point Humidity Pressure Visibility Wind Dir Wind Speed Gust Speed Precip Events Conditions
12:24 AM 41.0 °F 37.1 °F 35.6 °F 81% 30.53 in 10.0 mi ESE 5.8 mph - N/A   Overcast
12:58 AM 41.0 °F 38.0 °F 36.3 °F 83% 30.56 in 10.0 mi ESE 4.6 mph - N/A   Overcast
1:43 AM 41.0 °F - 35.6 °F 81% 30.55 in 10.0 mi East 2.3 mph - N/A   Overcast
1:58 AM 41.0 °F 39.0 °F 36.3 °F 83% 30.56 in 10.0 mi NNE 3.5 mph - N/A   Overcast
2:14 AM 41.0 °F - 37.4 °F 87% 30.55 in 10.0 mi NNE 2.3 mph - N/A Rain Light Rain
2:58 AM 40.6 °F 36.0 °F 37.8 °F 89% 30.53 in 8.0 mi NE 6.9 mph - 0.00 in Rain Light Rain
3:58 AM 39.9 °F 35.8 °F 39.4 °F 98% 30.53 in 8.0 mi NE 5.8 mph - 0.01 in Rain Light Rain
4:13 AM 41.0 °F 37.1 °F 39.2 °F 93% 30.53 in 8.0 mi NE 5.8 mph - N/A Rain Light Rain
4:58 AM 40.3 °F 37.1 °F 39.7 °F 98% 30.56 in 8.0 mi NNE 4.6 mph - 0.00 in Rain Light Rain
5:58 AM 40.1 °F 36.9 °F 39.9 °F 99% 30.57 in 8.0 mi NNE 4.6 mph - 0.00 in Rain Light Rain
6:58 AM 40.8 °F 38.8 °F 40.3 °F 98% 30.56 in 8.0 mi ENE 3.5 mph - 0.00 in Rain Light Rain
7:58 AM 41.7 °F 38.8 °F 40.5 °F 95% 30.56 in 10.0 mi ENE 4.6 mph - 0.00 in Rain Light Rain
8:58 AM 42.3 °F 37.9 °F 36.7 °F 81% 30.55 in 10.0 mi East 6.9 mph - 0.00 in Rain Light Rain
9:58 AM 42.4 °F 37.5 °F 36.1 °F 78% 30.53 in 10.0 mi East 8.1 mph - 0.00 in Rain Light Rain
10:37 AM 42.8 °F 37.0 °F 37.4 °F 81% 30.52 in 10.0 mi ESE 10.4 mph - N/A   Overcast
10:58 AM 43.3 °F 37.2 °F 36.7 °F 77% 30.53 in 10.0 mi East 11.5 mph - 0.00 in   Overcast
11:58 AM 43.9 °F 37.2 °F 36.9 °F 76% 30.51 in 10.0 mi ESE 13.8 mph - N/A   Overcast
12:58 PM 43.9 °F 38.3 °F 36.5 °F 75% 30.48 in 10.0 mi ESE 10.4 mph - N/A   Overcast
1:58 PM 43.9 °F 37.5 °F 35.8 °F 73% 30.48 in 10.0 mi East 12.7 mph - N/A   Overcast
2:58 PM 43.3 °F 36.8 °F 36.7 °F 77% 30.47 in 10.0 mi ESE 12.7 mph - N/A   Overcast
3:58 PM 42.3 °F 34.4 °F 37.0 °F 82% 30.43 in 10.0 mi East 16.1 mph - N/A   Overcast
4:58 PM 42.6 °F 35.9 °F 37.0 °F 81% 30.42 in 10.0 mi East 12.7 mph - N/A   Overcast
5:58 PM 42.1 °F 35.7 °F 37.6 °F 84% 30.40 in 10.0 mi East 11.5 mph - N/A   Overcast
6:58 PM 41.5 °F 35.0 °F 37.9 °F 87% 30.39 in 10.0 mi ESE 11.5 mph - 0.00 in Rain Light Rain
7:58 PM 40.6 °F 34.3 °F 40.1 °F 98% 30.37 in 5.0 mi East 10.4 mph - 0.00 in Rain Light Rain
8:58 PM 40.5 °F 33.2 °F 40.3 °F 99% 30.35 in 6.0 mi ESE 12.7 mph - 0.01 in Rain Light Rain
9:28 PM 41.0 °F 34.3 °F 41.0 °F 100% 30.32 in 4.0 mi East 11.5 mph - N/A Rain Light Rain
9:58 PM 40.5 °F 34.1 °F 40.3 °F 99% 30.32 in 5.0 mi East 10.4 mph - 0.03 in Rain Light Rain
10:13 PM 41.0 °F 33.9 °F 41.0 °F 100% 30.29 in 4.0 mi East 12.7 mph - N/A Rain Light Rain
10:43 PM 41.0 °F 33.9 °F 41.0 °F 100% 30.27 in 2.0 mi East 12.7 mph - N/A Rain Rain
10:58 PM 40.6 °F 33.8 °F 40.5 °F 99% 30.27 in 2.0 mi East 11.5 mph - 0.10 in Rain Rain
11:20 PM 41.0 °F 34.7 °F 41.0 °F 100% 30.24 in 5.0 mi East 10.4 mph - N/A Rain Light Rain
11:58 PM 41.2 °F 34.1 °F 41.0 °F 99% 30.22 in 1.2 mi East 12.7 mph - 0.03 in Rain Light Rain